TimeEDT,TemperatureF,Dew PointF,Humidity,Sea Level PressureIn,VisibilityMPH,Wind Direction,Wind SpeedMPH,Gust SpeedMPH,PrecipitationIn,Events,Conditions,WindDirDegrees,DateUTC
12:53 AM,75.9,73.9,94,29.98,9.0,South,11.5,-,N/A,,Overcast,190,2012-10-03 04:53:00
1:53 AM,77.0,75.0,94,29.99,9.0,South,8.1,-,N/A,,Overcast,190,2012-10-03 05:53:00
2:51 AM,77.0,75.2,94,30.01,9.0,SSW,6.9,-,N/A,,Overcast,200,2012-10-03 06:51:00
2:53 AM,77.0,75.0,94,29.99,9.0,SSW,5.8,-,N/A,,Overcast,200,2012-10-03 06:53:00
3:32 AM,75.2,75.2,100,30.01,8.0,SSW,3.5,-,N/A,,Mostly Cloudy,200,2012-10-03 07:32:00
3:42 AM,75.2,75.2,100,30.01,7.0,South,4.6,-,N/A,,Overcast,190,2012-10-03 07:42:00
3:53 AM,75.9,75.0,97,29.99,7.0,SSW,5.8,-,N/A,,Mostly Cloudy,200,2012-10-03 07:53:00
4:01 AM,75.2,75.2,100,30.01,7.0,South,5.8,-,N/A,,Scattered Clouds,190,2012-10-03 08:01:00
4:44 AM,75.2,75.2,100,30.02,8.0,South,5.8,-,N/A,,Mostly Cloudy,190,2012-10-03 08:44:00
4:53 AM,75.9,75.0,97,30.01,8.0,South,4.6,-,N/A,,Mostly Cloudy,190,2012-10-03 08:53:00
5:06 AM,75.2,75.2,100,30.03,8.0,South,4.6,-,N/A,,Mostly Cloudy,190,2012-10-03 09:06:00
5:36 AM,75.2,75.2,100,30.03,9.0,South,4.6,-,N/A,,Scattered Clouds,190,2012-10-03 09:36:00
5:53 AM,75.9,73.9,94,30.02,9.0,South,3.5,-,N/A,,Mostly Cloudy,190,2012-10-03 09:53:00
6:48 AM,75.2,73.4,94,30.05,10.0,SSW,6.9,-,N/A,,Mostly Cloudy,210,2012-10-03 10:48:00
6:53 AM,75.9,73.9,94,30.04,10.0,SSW,6.9,-,N/A,,Mostly Cloudy,210,2012-10-03 10:53:00
7:23 AM,75.2,73.4,94,30.06,9.0,SSW,4.6,-,N/A,,Mostly Cloudy,210,2012-10-03 11:23:00
7:53 AM,75.9,73.9,94,30.05,8.0,Calm,Calm,-,N/A,,Overcast,0,2012-10-03 11:53:00
8:53 AM,77.0,73.9,90,30.07,10.0,SSW,5.8,-,N/A,,Overcast,200,2012-10-03 12:53:00
9:05 AM,77.0,73.4,89,30.09,10.0,South,4.6,-,N/A,,Overcast,180,2012-10-03 13:05:00
9:53 AM,78.1,75.0,90,30.08,10.0,SSW,3.5,-,N/A,,Overcast,200,2012-10-03 13:53:00
10:44 AM,78.8,75.2,89,30.11,10.0,South,9.2,-,N/A,,Overcast,190,2012-10-03 14:44:00
10:53 AM,79.0,73.9,84,30.10,10.0,South,6.9,-,N/A,,Overcast,180,2012-10-03 14:53:00
11:21 AM,80.6,75.2,84,30.11,10.0,South,5.8,-,N/A,,Mostly Cloudy,180,2012-10-03 15:21:00
11:53 AM,81.0,73.9,79,30.09,10.0,SW,8.1,-,N/A,,Mostly Cloudy,220,2012-10-03 15:53:00
12:17 PM,82.4,71.6,70,30.11,10.0,SSW,5.8,-,N/A,,Scattered Clouds,200,2012-10-03 16:17:00
12:53 PM,84.0,71.1,65,30.08,10.0,SSW,8.1,-,N/A,,Partly Cloudy,200,2012-10-03 16:53:00
1:53 PM,84.9,69.1,59,30.07,10.0,SW,9.2,-,N/A,,Partly Cloudy,220,2012-10-03 17:53:00
2:53 PM,87.1,64.9,48,30.06,10.0,WSW,10.4,-,N/A,,Clear,250,2012-10-03 18:53:00
3:53 PM,84.9,66.9,55,30.05,10.0,SW,8.1,-,N/A,,Partly Cloudy,220,2012-10-03 19:53:00
5:53 PM,82.9,68.0,60,30.08,10.0,SW,4.6,-,N/A,,Clear,230,2012-10-03 21:53:00
6:53 PM,80.1,68.0,67,30.09,10.0,SSW,3.5,-,N/A,,Clear,210,2012-10-03 22:53:00
7:53 PM,78.1,69.1,74,30.11,10.0,SSW,3.5,-,N/A,,Partly Cloudy,200,2012-10-03 23:53:00
8:53 PM,77.0,69.1,76,30.12,10.0,SSW,3.5,-,N/A,,Overcast,210,2012-10-04 00:53:00
9:53 PM,75.9,70.0,82,30.14,10.0,SSW,4.6,-,N/A,,Mostly Cloudy,210,2012-10-04 01:53:00
10:53 PM,75.0,71.1,87,30.16,10.0,SW,4.6,-,N/A,,Overcast,220,2012-10-04 02:53:00
11:53 PM,75.0,71.1,87,30.17,10.0,SSW,4.6,-,N/A,,Overcast,210,2012-10-04 03:53:00